Weather observations for the past three days for
Auburn-Lewiston
Imperial (Metric)
Date Time (edt) Wind (mph) Vis. (mi.) Weather Sky Cond. Temperature (ºF) Relative Humidity Wind Chill (°F) Heat Index (°F) Pressure Precipitation (in)
Air Dwpt 6 hour altimeter (in) sea level (mb) 1 hr 3 hr 6 hr
Max. Min.
23 00:56 SE 3 10.00 Partly Cloudy SCT003 SCT035 0 0 0% 30.01 0.0
22 23:56 Calm 10.00 Overcast BKN003 OVC090 0 0 0% 30.03 0.0
22 22:56 SE 3 10.00 Light Rain BKN110 0 0 0% 30.03 0.0
22 21:56 S 3 10.00 Light Rain FEW047 BKN075 OVC090 0 0 0% 30.05 0.0
22 20:56 Calm 10.00 Light Rain CLR 0 0 0% 30.05 0.0
22 19:56 S 5 10.00 Light Rain BKN075 BKN100 0 0 0% 30.04 0.0 0.01
22 18:56 S 5 10.00 Light Rain FEW019 SCT030 BKN100 0 0 0% 30.06 0.0
22 17:56 Calm 10.00 Overcast BKN010 OVC015 0 0 0% 30.05 0.0 0.01
22 16:56 S 3 10.00 Light Rain BKN014 OVC019 0 0 0% 30.05 0.0
22 15:56 S 7 10.00 Light Rain FEW009 BKN013 BKN024 0 0 0% 30.06 0.0
22 14:56 S 5 10.00 Light Rain SCT011 BKN014 OVC028 0 0 0% 30.09 0.0
22 13:56 Vrbl 3 10.00 Overcast BKN013 OVC022 0 0 0% 30.11 0.0 0.13
22 12:56 S 8 10.00 Overcast FEW008 OVC015 0 0 0% 30.1 0.0
22 11:56 S 6 10.00 Overcast OVC008 0 0 0% 30.12 0.0
22 10:56 S 6 10.00 Overcast OVC006 0 0 0% 30.12 0.0 0.08 0.13
22 09:56 S 5 7.00 Light Rain SCT004 BKN032 OVC050 0 0 0% 30.13 0.0 0.05
22 08:56 S 6 10.00 Light Rain FEW006 BKN032 OVC042 0 0 0% 30.13 0.0
22 07:56 Calm 10.00 Overcast SCT007 OVC040 0 0 0% 30.12 0.0 0.11
22 06:56 S 5 10.00 Overcast FEW007 OVC042 0 0 0% 30.12 0.0 0.01
22 05:56 Calm 5.00 Light Rain OVC041 0 0 0% 30.12 0.0 0.01
22 04:56 Calm 10.00 Light Rain OVC048 0 0 0% 30.11 0.0 0.01 0.09
22 03:56 NW 3 10.00 Light Rain FEW003 OVC048 0 0 0% 30.11 0.0 0.02
22 02:56 N 5 7.00 Rain FEW021 OVC046 0 0 0% 30.12 0.0 0.06
22 01:56 Calm 9.00 Light Rain OVC050 0 0 0% 30.12 0.0 0.01 0.01
22 00:56 Calm 10.00 Light Rain OVC050 0 0 0% 30.12 0.0
21 23:56 Calm 10.00 Overcast OVC055 0 0 0% 30.14 0.0
21 22:56 Calm 10.00 Overcast FEW048 BKN065 OVC080 0 0 0% 30.15 0.0
21 21:56 Calm 10.00 Mostly Cloudy BKN065 BKN085 0 0 0% 30.18 0.0
21 20:56 S 5 10.00 Overcast OVC070 0 0 0% 30.16 0.0
21 19:56 Calm 10.00 Overcast OVC065 0 0 0% 30.17 0.0
21 18:56 S 6 10.00 Overcast OVC090 0 0 0% 30.16 0.0
21 17:56 SW 3 10.00 Overcast OVC065 0 0 0% 30.16 0.0
21 16:56 SW 6 10.00 Overcast OVC065 0 0 0% 30.17 0.0
21 15:56 S 5 10.00 Overcast OVC065 0 0 0% 30.18 0.0
21 14:56 S 6 10.00 Overcast OVC065 0 0 0% 30.19 0.0
21 13:56 Calm 10.00 Mostly Cloudy SCT065 BKN085 0 0 0% 30.2 0.0 0.01
21 12:56 Vrbl 6 10.00 Overcast BKN065 OVC080 0 0 0% 30.21 0.0
21 11:56 NE 7 10.00 Mostly Cloudy BKN065 0 0 0% 30.23 0.0
21 10:56 NE 8 10.00 Mostly Cloudy BKN065 BKN090 0 0 0% 30.23 0.0 0.01
21 09:56 N 10 10.00 Overcast OVC065 0 0 0% 30.24 0.0
21 08:56 N 6 9.00 Light Rain OVC060 0 0 0% 30.24 0.0 0.01
21 07:56 N 7 10.00 Overcast OVC060 0 0 0% 30.23 0.0
21 06:56 NE 7 10.00 Overcast FEW024 BKN030 OVC090 0 0 0% 30.22 0.0
21 05:56 N 6 10.00 Overcast OVC095 0 0 0% 30.19 0.0
21 04:56 N 3 10.00 Mostly Cloudy BKN100 BKN120 0 0 0% 30.17 0.0
21 03:56 Calm 10.00 Mostly Cloudy BKN065 0 0 0% 30.16 0.0
21 02:56 N 3 10.00 Fair CLR 0 0 0% 30.16 0.0
21 01:56 NW 3 10.00 Fair CLR 0 0 0% 30.16 0.0
21 00:56 NW 5 10.00 Fair CLR 0 0 0% 30.17 0.0
20 23:56 Calm 10.00 Overcast OVC110 0 0 0% 30.18 0.0
20 22:56 Calm 10.00 Fair CLR 0 0 0% 30.18 0.0
20 21:56 Calm 10.00 Mostly Cloudy BKN110 0 0 0% 30.19 0.0
20 20:56 NW 3 10.00 Mostly Cloudy BKN110 0 0 0% 30.2 0.0
20 19:56 N 5 10.00 Light Rain FEW060 BKN070 OVC095 0 0 0% 30.2 0.0
20 18:56 S 3 10.00 Light Rain FEW050 BKN070 BKN085 0 0 0% 30.15 0.0 0.06
20 17:56 W 9 G 30 4.00 Thunderstorm in Vicinity Heavy Rain SCT028 BKN035 OVC070 0 0 0% 30.18 0.0
20 16:56 S 10 10.00 Light Rain FEW075 0 0 0% 30.12 0.0
20 15:56 Calm 10.00 Thunderstorm CLR 0 0 0% 30.12 0.0
20 14:56 Vrbl 5 10.00 A Few Clouds FEW060 0 0 0% 30.14 0.0
20 13:56 Vrbl 6 10.00 Fair CLR 0 0 0% 30.17 0.0
20 12:56 Vrbl 5 10.00 Fair CLR 0 0 0% 30.19 0.0
20 11:56 W 6 10.00 Fair CLR 0 0 0% 30.2 0.0
20 10:56 SW 5 10.00 Fair CLR 0 0 0% 30.2 0.0
20 09:56 W 6 10.00 Fair CLR 0 0 0% 30.2 0.0
20 08:56 Vrbl 7 10.00 Fair CLR 0 0 0% 30.2 0.0
20 07:56 Calm 10.00 Fair CLR 0 0 0% 30.2 0.0
20 06:56 S 5 10.00 Fair CLR 0 0 0% 30.19 0.0
20 05:56 Calm 6.00 Fair with Haze CLR 0 0 0% 30.18 0.0
20 04:56 Calm 4.00 Fair with Haze CLR 0 0 0% 30.17 0.0
20 03:56 Calm 7.00 Fair CLR 0 0 0% 30.17 0.0
20 02:56 Calm 10.00 Fair CLR 0 0 0% 30.17 0.0
20 01:56 Calm 10.00 Fair CLR 0 0 0% 30.18 0.0
Date Time (edt) Wind (mph) Vis. (mi.) Weather Sky Cond. Air Dwpt Max. Min. Relative Humidity Wind Chill (°F) Heat Index (°F) altimeter (in) sea level (mb) 1 hr 3 hr 6 hr
6 hour
Temperature (ºF) Pressure Precipitation (in)